Showing default

LEMUR-2 IRINA, 68480

Orbit data source: Space-Track

LEMUR-2 IRINA, 68480 is a payload satellite owned by Spire (LU) in SSO that was launched on Mon, 30 Mar 2026 UTC via an FALCON 9 launch vehicle from the Air Force Western Test Range (AFWTR). Payload-class satellites include a variety of spacecraft equipped with specific instruments for various scientific and technological missions. These include communications satellites like Starlink; space stations such as the ISS; scientific satellites like the Hubble; Earth observation satellites from companies like Planet Labs, Umbra, and HawkEye 360; GPS; miniature CubeSats for education and research; and military/defense satellites.

Loading next visibility...
Identifier
68480, 2026-067BS
Orbit
SSO
Country
Flag of LULU / LUXE
Related business
Manufacturer
Spire/Glasgow
Mission
Operational Commercial Com/MetRO
Bus & Motor
CUBESAT 3U, Unknown motor
Mass
7.6 kg wet, 7.6 kg dry
Launch date (UTC)
2026-03-30 (6 months ago)
Launch vehicle
FALCON 9
Launch site
Air Force Western Test Range (AFWTR)
Object type
Payload
Rocket body
Debris
Shape & HBR
Box + 2 Pan, 0.5 m
Radar Cross Section
0.063 m², Medium (>0.1 m² and < 1m²)

Expand to show TLE details & history
Last TLE update: 10 hours ago

TLE from 10 hours ago
0 LEMUR-2 IRINA
1 68480U 26067BS  26263.42388686  .00002150  00000-0  21014-3 0  9990
2 68480  97.7728 220.6351 0003043 340.9767  19.1339 14.93412973 25942
Epoch: 2026-09-20T10:10Z
TLE epoch observation values (Epoch: 2026-09-20T10:10:23.824Z)
Latitude
0.00002°
Longitude
68.71756°
Altitude
588.344 km
Speed
7.567 km/s
True Right ascension
14h 42m 32s
True Declination
0° 00' 00"
Sunlit
Object was in daylight at epoch
Visualization orbit readout
Latitude
Unknown
Longitude
Unknown
Altitude
Unknown
Speed
Unknown
Apparent Right ascension
Unknown
Apparent Declination
Unknown
Sunlit
N/A
Visualization observer readout
Local Sidereal Time
12:54:55
Azimuth
Unknown
Elevation
Unknown
Doppler factor
Unknown
Orbital elements
Apogee altitude
586.439 km
Perigee altitude
582.202 km
Semi-major axis
6,962.457 km
Eccentricity
0.0003
Inclination
97.7728°
RAAN
220.6351°
Arg. of periapsis
340.9767°
True anomaly
19.14533°
Mean anomaly
19.1339°
Eccentric anomaly
19.13962°
Mean motion
3.73594 °/min
Orbital period
96.36 mins
BSTAR
0.00021014
Loading maneuver chart data...
Computing Atmospheric mass density...
Loading historical data...
Loading historical data...
Loading historical data...
Loading historical data...
Loading historical data...
Loading historical data...
Loading historical data...

Documentation

Showing up to 5 results
|